Regional Weather Roundup
Issued by NWS

Home | Current Version | Previous Version | Text Only | Print | Product List | Glossary Off
Versions: 1 2 3 4 5 6 7 8 9 10 11 12 13 14 15 16 17 18 19 20 21 22 23 24 25 26 27 28 29 30 31 32 33 34 35 36 37 38 39 40 41 42 43 44 45 46 47 48 49 50

000
ASUS43 KMKX 271311
RWRWI

WISCONSIN REGIONAL WEATHER ROUNDUP
NATIONAL WEATHER SERVICE MILWAUKEE/SULLIVAN WI
800 AM CDT FRI MAY 27 2016

NOTE: "FAIR" INDICATES FEW OR NO CLOUDS BELOW 12,000 FEET WITH NO
SIGNIFICANT WEATHER AND/OR OBSTRUCTIONS TO VISIBILITY.

WIZ001-002-006>008-014>016-023>028-271400-
NORTHWEST WISCONSIN

CITY           SKY/WX    TMP DP  RH WIND       PRES   REMARKS
SUPERIOR ARPT  CLOUDY    45  45 100 E6        29.87S
ASHLAND        CLOUDY    51  51 100 N3        29.88S FOG
HAYWARD        CLOUDY    57  55  93 CALM      29.87R
SIREN          LGT RAIN  62  56  79 E3        29.83F
CUMBERLAND     CLOUDY    59  55  88 E6        29.85F
RICE LAKE      CLOUDY    61  57  87 CALM      29.87S
CHETEK         CLOUDY    62  58  86 SE5       29.87R
LADYSMITH      CLOUDY    60  56  87 CALM      29.88S
EAU CLAIRE     CLOUDY    62  59  90 S5        29.87R
MENOMONIE      RAIN      62  59  91 E6        29.88R
NEW RICHMOND   CLOUDY    63  59  88 CALM      29.84R
OSCEOLA        LGT RAIN  64  60  86 E5        29.85R
$$

WIZ003>005-009-010-017-018-271400-
NORTH CENTRAL WISCONSIN

CITY           SKY/WX    TMP DP  RH WIND       PRES   REMARKS
MANITOWISH WTR NOT AVBL
ARBOR VITAE    MOSUNNY   64  58  80 E3        29.89S
WOODRUFF       MOSUNNY   64  58  80 E3        29.89S
RHINELANDER    SUNNY     63  58  83 E5        29.90F
EAGLE RIVER      N/A     61  61  99 CALM      29.90S
LAND O LAKES   MOSUNNY   60  60 100 CALM      29.91F
PHILLIPS       CLOUDY    58  56  95 CALM      29.88R
TOMAHAWK       SUNNY     62  61  95 CALM      29.89S
MEDFORD        CLOUDY    62  58  87 E5        29.87S
MERRILL        SUNNY     61  59  94 CALM      29.89S
$$

WIZ029-030-035-036-043>047-271400-
CENTRAL WISCONSIN

CITY           SKY/WX    TMP DP  RH WIND       PRES   REMARKS
WAUSAU         MOSUNNY   66  59  78 CALM      29.87R
MOSINEE        PTSUNNY   63  61  94 E3        29.89S
MARSHFIELD       N/A     64  58  80 NE3       29.87R
STEVENS POINT  CLOUDY    62  59  90 CALM      29.88F
WAUPACA        CLOUDY    66  66 100 N7        29.84F
WAUTOMA        NOT AVBL
WISC RAPIDS    CLOUDY    65  59  81 SE3       29.89R
CAMP DOUGLAS   CLOUDY    64  64 100 CALM      29.82F
$$

WIZ011>013-019>022-031-037>040-048>050-271400-
NORTHEAST WISCONSIN

CITY           SKY/WX    TMP DP  RH WIND       PRES   REMARKS
ANTIGO         SUNNY     67  60  78 CALM      29.90S
SHAWANO        SUNNY     67  61  82 CALM      29.89S
OCONTO         SUNNY     66  66 100 CALM      29.86F
STURGEON BAY   NOT AVBL
GREEN BAY      SUNNY     71  61  70 CALM      29.87F
MANITOWOC      MOSUNNY   64  58  80 N5        29.89S
APPLETON       PTSUNNY   68  61  77 CALM      29.86F
CLINTONVILLE   MOSUNNY   64  59  82 CALM      29.88S
OSHKOSH        CLOUDY    70  60  70 NE7       29.85F
$$

WIZ032>034-041-042-053>061-271400-
SOUTHWEST WISCONSIN

CITY           SKY/WX    TMP DP  RH WIND       PRES   REMARKS
LA CROSSE      LGT RAIN  66  63  90 N6        29.82F
SPARTA         CLOUDY    63  62  98 CALM      29.85F
VIROQUA        CLOUDY    63  62  99 E10       29.84S
BOSCOBEL       CLOUDY    66  63  90 NE3       29.84R
PRAIRIE DU CHI CLOUDY    64  63  96 SE3       29.82R
PLATTEVILLE    CLOUDY    65  64  97 E9        29.86R
$$

WIZ056-057-062-063-064-067-068-271400-
SOUTH CENTRAL WISCONSIN

CITY           SKY/WX    TMP DP  RH WIND       PRES   REMARKS
REEDSBURG      CLOUDY    62  62 100 CALM      29.86R
BARABOO/DELLS  CLOUDY    63  60  92 CALM      29.85F
LONE ROCK      CLOUDY    65  61  87 SE6       29.85R
MINERAL POINT  CLOUDY    64  63  94 E3        29.87R
MADISON        CLOUDY    66  63  90 CALM      29.86R
MIDDLETON      CLOUDY    66  63  88 CALM      29.87R
WATERTOWN      CLOUDY    69  67  95 S3        29.85F
MONROE         CLOUDY    66  63  88 CALM      29.88R
JANESVILLE     CLOUDY    72  68  88 NE3       29.85R
$$

WIZ051-052-058>065-066-070>072-271400-
SOUTHEAST WISCONSIN

CITY           SKY/WX    TMP DP  RH WIND       PRES   REMARKS
MILWAUKEE      PTSUNNY   72  67  84 SW5       29.86F
WAUKESHA       SUNNY     66  64  94 CALM      29.86F FOG
MILWAUKEE/TIMM MOSUNNY   70  64  83 SW3       29.87S HAZE
RACINE         CLOUDY    73  66  78 SE5       29.88S
BURLINGTON     CLOUDY    69  67  91 CALM      29.86S
KENOSHA        CLOUDY    73  67  81 S5        29.87S
FOND DU LAC    CLOUDY    70  63  78 E3        29.86S
SHEBOYGAN      CLOUDY    69  61  75 NE7       29.86S
WEST BEND      CLOUDY    66  63  88 CALM      29.87S
JUNEAU         CLOUDY    66  63  89 SE6       29.87F
$$

LSZ147-162-271400-
LAKE SUPERIOR

STATION/POSITION TIME  TEMP    WIND        PRES    WAVE
                       AIR SEA DIR/SP/G            HT/PER
                 (UTC) (F)     (DEG/KT/KT) (MB)    (FT/S)
W MID LAKE BUOY  1250   39 38  110/  4/  6 1012.6F   1
DEVILS ISLAND    1200   45     360/  4/  5 1012.2S
SAXON HARBOR     1140   49     190/  2/  4 1011.5R
$$

LMZ867-665-643>646-271400-
LAKE MICHIGAN

STATION/POSITION TIME  TEMP    WIND        PRES    WAVE
                       AIR SEA DIR/SP/G            HT/PER
                 (UTC) (F)     (DEG/KT/KT) (MB)    (FT/S)
CHAMBERS ISLAND  1100   59     350/  1/  3 1012.2S
N MID LAKE BUOY  1250   46 45  320/  6/  6 1013.1R   1/ 4
NORTHPORT PIER   1100   52     140/  5/  9 1012.2S
SISTER BAY       1205   60        CALM       N/A
ALGOMA LAKESHORE 1217             CALM       N/A
KEWAUNEE LAKESHO 1200   55      20/  2/  3 1011.6S
SHEBOYGAN LAKESH 1300   52      80/  5/  7 1012.0R
PORT WASHINGTON  1200   59      50/  3/  5 1012.2S
S MID LAKE BUOY  1250   54 50  150/  8/ 10 1012.0R   1/ 3
KENOSHA   LAKESH 1200   59     180/ 13/ 13 1011.5S
$$

TC  - TEMPERATURE IN CELSIUS
VSB - VISIBILITY IN STATUTE MILES
WCI - WIND CHILL INDEX
HX  - HEAT INDEX





USA.gov is the U.S. government's official web portal to all federal, state and local government web resources and services.